Regional Weather Roundup
Issued by NWS

Home | Current Version | Previous Version | Text Only | Print | Product List | Glossary Off
Versions: 1 2 3 4 5 6 7 8 9 10 11 12 13 14 15 16 17 18 19 20 21 22 23 24 25 26 27 28

000
ASUS45 KBOI 291510
RWRID

IDAHO REGIONAL WEATHER ROUNDUP
NATIONAL WEATHER SERVICE BOISE ID
900 AM MDT SUN MAY 29 2016

NOTE: "FAIR" INDICATES FEW OR NO CLOUDS BELOW 12000 FEET
WITH NO SIGNIFICANT WEATHER AND/OR OBSTRUCTIONS TO VISIBILITY

IDZ012-014-291600-
SOUTHWEST IDAHO


CITY           SKY/WX    TMP DP  RH WIND       PRES   REMARKS
BOISE          SUNNY     62  33  33 SE13      30.05R
CALDWELL       SUNNY     59  38  45 E6        30.05R
MOUNTAIN HOME  SUNNY     61  41  47 E15       30.06R
$$

IDZ016-017-291600-
SOUTHCENTRAL IDAHO


CITY           SKY/WX    TMP DP  RH WIND       PRES   REMARKS
BURLEY         SUNNY     53  41  63 N5        30.10R
JEROME         SUNNY     58  37  45 NE9       30.10S
TWIN FALLS     SUNNY     59  34  39 CALM      30.10S
$$

IDZ019>023-291600-
SOUTHEAST IDAHO


CITY           SKY/WX    TMP DP  RH WIND       PRES   REMARKS
IDAHO FALLS    SUNNY     50  38  63 N6        30.15R
POCATELLO      SUNNY     53  40  61 CALM      30.14R
REXBURG        SUNNY     50  37  61 CALM      30.15S
$$

IDZ006-010-011-018-031-032-291600-
CENTRAL IDAHO MOUNTAINS


CITY           SKY/WX    TMP DP  RH WIND       PRES   REMARKS
MCCALL         MOSUNNY   45  35  68 S3        30.09S
HAILEY         SUNNY     48  32  53 NW12      30.16S
STANLEY          N/A     42  28  57 N5        30.19F
SALMON         SUNNY     48  37  66 CALM      30.12S
CHALLIS        SUNNY     50  30  46 CALM      30.13F
$$

IDZ002-004-006-007-026-291600-
NORTHERN IDAHO


CITY           SKY/WX    TMP DP  RH WIND       PRES   REMARKS
LEWISTON       MOSUNNY   56  45  66 N3        30.03R
LOWELL           N/A     52  43  71 N3        30.07F
COEUR D`ALENE  MOSUNNY   54  43  66 SE6       29.98S
MULLAN PASS    SUNNY     46  33  60 VRB3      30.07R
$$




USA.gov is the U.S. government's official web portal to all federal, state and local government web resources and services.